Regional Weather Roundup
Issued by NWS Portland, ME

Current Version | Previous Version | Text Only | Print | Product List | Glossary Off
Versions: 1 2 3 4 5 6 7 8 9 10 11 12 13 14 15 16 17 18 19 20 21 22 23 24 25 26 27 28 29 30 31 32 33 34 35 36 37 38 39 40 41 42 43 44 45 46 47 48 49 50
000 ASUS41 KGYX 172110 RWRGYX WEATHER ROUNDUP FOR MAINE AND NEW HAMPSHIRE NATIONAL WEATHER SERVICE GRAY ME 500 PM EDT FRI AUG 17 2018 MEZ002-005-006-010-012-015-018-020-021-024-026-027-029-172200- MAINE CITY SKY/WX TMP DP RH WIND PRES REMARKS PORTLAND PTSUNNY 73 66 78 SE7 30.01F SANFORD RAIN 71 67 87 CALM 30.02F BAR HARBOR FAIR 69 62 78 S9 30.03F WISCASSET FAIR 73 61 65 S7 30.03F ROCKLAND FAIR 68 64 87 S8 30.03F FRYEBURG LGT RAIN 76 65 68 SE7 29.99F LEWISTONAUBURN FAIR 72 57 60 SE7 30.00F AUGUSTA FAIR 73 57 57 S12 30.01F WATERVILLE FAIR 75 60 59 SW7 29.98F BANGOR PTSUNNY 74 62 66 S13 30.00F GREENVILLE N/A 71 58 63 VRB5 29.98F MILLINOCKET FAIR 76 57 51 VRB5 29.99F HOULTON FAIR 75 60 59 SW12 29.97F PRESQUE ISLE FAIR 76 57 51 S8 29.97F FRENCHVILLE FAIR 76 54 46 S5 29.96F CARIBOU FAIR 76 55 48 S8 29.96F $$ NHZ002-005-008-009-011-012-014-172200- NEW HAMPSHIRE CITY SKY/WX TMP DP RH WIND PRES REMARKS PORTSMOUTH LGT RAIN 72 66 83 SE8 30.00S FOG ROCHESTER RAIN 72 69 90 SE5 30.00F FOG MANCHESTER NOT AVBL CONCORD FAIR 74 71 91 SE3 29.98F LACONIA FAIR 77 67 71 E6 29.98F PLYMOUTH PTSUNNY 75 66 74 E3 29.97F BERLIN PTSUNNY 74 67 78 SE9 29.98F WHITEFIELD LGT RAIN 75 70 84 CALM 29.95F JAFFREY NOT AVBL LEBANON FAIR 79 70 74 CALM 29.93F MT WASHINGTON FOG 57 57 100 SW36G46 N/A VSB 1/16 $$ VTZ005-007-008-172200- VERMONT CITY SKY/WX TMP DP RH WIND PRES REMARKS ST JOHNSBURY N/A 71 69 93 MISG 29.92F MONTPELIER PTSUNNY 73 71 93 S12 29.98F BURLINGTON PTSUNNY 76 70 82 S7 29.88F $$ MAZ007-012-024-CTZ003-RIZ002-NYZ038-NYZ072-172200- SOUTHERN NEW ENGLAND AND NY CITY SKY/WX TMP DP RH WIND PRES REMARKS BOSTON CLOUDY 78 69 73 NE10 29.97F WORCESTER PTSUNNY 83 71 67 S8 30.01R NANTUCKET PTSUNNY 77 75 93 S8 30.02S FOG PROVIDENCE PTSUNNY 85 73 67 S10 29.97F HX 91 HARTFORD PTSUNNY 86 72 62 S14 29.94F HX 92 ALBANY PTSUNNY 85 71 63 S14 29.90F HX 90 NEW YORK CITY FAIR 87 72 60 S18G28 29.94F HX 93 $$ ANZ081-ANZ082-ANZ150-NHZ014-MEZ023>029-172200- COASTAL MARINE OBSERVATIONS STATION/POSITION TIME TEMP WIND PRES WAVE AIR SEA DIR/SP/G HT/PER (UTC) (F) (DEG/KT/KT) (MB) (FT/S) MOUNT DESERT ROC 2100 65 140/ 11/ 11 1017.1F MATINICUS ROCK 2000 66 140/ 13/ 14 1016.9F ISLE OF SHOALS 2000 69 50/ 6/ 6 1015.7F JEFFREYS LEDGE 2036 71 N/A 2/ 7 CASHES LEDGE BUO 2050 71 71 1016.1F 2/ 7 $$ .............KEY.............. WCI - WIND CHILL TC - TEMPERATURE IN CELSIUS VSB - VISIBILITY IN MILES HX - HEAT INDEX FAIR- INDICATES FEW OR NO CLOUDS BELOW 12,000 FT, WITH NO SIGNIFICANT WEATHER AND/OR OBSTRUCTIONS TO VISIBILITY.

USA.gov is the U.S. government's official web portal to all federal, state and local government web resources and services.